User: anonymous   Login
Location: Long Point Provincial Park
(42.5794°N, 80.4103°W)
Time: 08:10:06
(UTC-04:00)
Language:

Iridium 19 - Orbit

View from above orbital plane
View from above orbital plane
View from above satellite
View from above satellite

Ground track
Ground track

The orbit data is extracted from the following two-line orbital elements,

1 24965U 97056A   17085.79561624 +.00000205 +00000-0 +66188-4 0  9994
2 24965 086.4005 353.1530 0002187 083.1460 276.9984 14.34217304020748
Epoch (UTC): 26 March 2017 19:05:41
Eccentricity: 0.0002187
inclination: 86.4005°
perigee height: 776 km
apogee height: 779 km
right ascension of ascending node: 353.1530°
argument of perigee: 83.1460°
revolutions per day: 14.34217304
mean anomaly at epoch: 276.9984°
orbit number at epoch: 2074

The dashed part of the orbit path shows where the satellite is in the earth's shadow,  

DLR